Terminal Aerodrome Forecast
Issued by NWS Wakefield, VA

Home | Current Version | Previous Version | Text Only | Print | Product List | Glossary On
Versions: 1 2 3 4 5 6 7 8 9 10 11 12 13 14 15 16 17 18 19 20 21 22
404
FTUS41 KAKQ 291742
TAFORF
TAF
KORF 291742Z 2918/3018 09012G19KT P6SM VCSH BKN012 OVC025
     FM300000 10009KT 4SM -SHRA OVC070
     FM300700 10004KT P6SM BKN070
     FM301400 10003KT P6SM BKN035=

USA.gov is the U.S. government's official web portal to all federal, state and local government web resources and services.